GW3504 Weather Reports


time (UTC)temp
F
wind
direction
speed
knots
gust
knots
rain 1hr
in
rain 24hr
in
rain mn
in
humidity
%
barometer
mb
20260507012521 55 0 0.0 0.0 0.00 0.00 0.00 46 1017.9
20260507012024 56 0 0.0 0.0 0.00 0.00 0.00 45 1017.9
20260507011539 56 0 0.0 0.0 0.00 0.00 0.00 44 1017.9
20260507011023 57 0 0.0 0.0 0.00 0.00 0.00 43 1017.8
20260507010523 57 0 0.0 0.0 0.00 0.00 0.00 41 1017.8
20260507010051 58 0 0.0 0.0 0.00 0.00 0.00 39 1017.7
20260507005523 59 0 0.0 1.7 0.00 0.00 0.00 38 1017.8
20260507005024 59 0 0.0 1.7 0.00 0.00 0.00 37 1017.7
20260507004537 59 0 0.0 1.7 0.00 0.00 0.00 36 1017.7
20260507004023 59 0 0.0 7.0 0.00 0.00 0.00 36 1017.6
20260507003524 59 0 0.0 7.0 0.00 0.00 0.00 37 1017.7
20260507003035 60 0 0.0 1.7 0.00 0.00 0.00 37 1017.7
20260507002522 59 0 0.0 5.2 0.00 0.00 0.00 37 1017.6
20260507002028 59 0 0.9 6.1 0.00 0.00 0.00 36 1017.7
20260507001537 60 325 0.9 6.1 0.00 0.00 0.00 35 1017.7
20260507001021 60 286 0.9 5.2 0.00 0.00 0.00 35 1017.7
20260507000522 60 13 0.9 5.2 0.00 0.00 0.00 36 1017.7
20260507000036 60 5 0.9 4.3 0.00 0.00 0.00 35 1017.7
20260506235524 61 290 0.9 3.5 0.00 0.00 0.00 35 1017.7
20260506235021 60 0 0.0 3.5 0.00 0.00 0.00 36 1017.8
20260506234534 60 330 0.0 3.5 0.00 0.00 0.00 36 1017.9
20260506234023 60 330 0.9 4.3 0.00 0.00 0.00 35 1018.0
20260506233524 60 351 0.9 5.2 0.00 0.00 0.00 36 1018.1
20260506233037 60 343 1.7 5.2 0.00 0.00 0.00 36 1018.0
20260506232524 60 5 1.7 5.2 0.00 0.00 0.00 35 1018.0
20260506232024 60 330 0.9 7.0 0.00 0.00 0.00 36 1018.0
20260506231538 60 18 1.7 7.8 0.00 0.00 0.00 35 1018.0
20260506231024 60 306 0.9 13.0 0.00 0.00 0.00 37 1018.0
20260506230522 60 308 2.6 13.0 0.00 0.00 0.00 36 1018.1
20260506230052 60 315 2.6 7.8 0.00 0.00 0.00 36 1018.0
20260506225523 60 5 1.7 9.6 0.00 0.00 0.00 36 1018.1
20260506225022 59 20 1.7 9.6 0.00 0.00 0.00 38 1018.1
20260506224541 60 31 3.5 9.6 0.00 0.00 0.00 35 1018.0
20260506224023 60 294 2.6 8.7 0.00 0.00 0.00 36 1017.9
20260506223521 60 302 2.6 8.7 0.00 0.00 0.00 36 1018.0
20260506223035 60 304 1.7 7.8 0.00 0.00 0.00 35 1018.0
20260506222522 60 323 1.7 10.4 0.00 0.00 0.00 35 1017.8
20260506222023 60 275 2.6 12.2 0.00 0.00 0.00 36 1017.8
20260506221541 60 343 2.6 12.2 0.00 0.00 0.00 36 1018.0
20260506221021 60 22 0.9 6.1 0.00 0.00 0.00 37 1017.9
20260506220523 60 290 0.9 7.8 0.00 0.00 0.00 36 1018.0
20260506220050 59 299 2.6 7.8 0.00 0.00 0.00 37 1018.0
20260506215526 59 294 1.7 7.0 0.00 0.00 0.00 37 1018.0
20260506215024 59 321 0.9 6.1 0.00 0.00 0.00 37 1018.0
20260506214538 59 283 1.7 10.4 0.00 0.00 0.00 35 1018.0
20260506214022 59 296 2.6 10.4 0.00 0.00 0.00 36 1018.0
20260506213524 60 39 3.5 10.4 0.00 0.00 0.00 37 1018.1
20260506213039 59 18 4.3 8.7 0.00 0.00 0.00 34 1018.1
20260506212523 60 0 1.7 9.6 0.00 0.00 0.00 35 1018.2
20260506212025 60 317 2.6 9.6 0.00 0.00 0.00 37 1018.3
20260506211536 60 352 3.5 13.0 0.00 0.00 0.00 35 1018.3
20260506211024 59 300 2.6 13.0 0.00 0.00 0.00 37 1018.4
20260506210521 59 304 1.7 9.6 0.00 0.00 0.00 36 1018.3
20260506210052 60 292 4.3 9.6 0.00 0.00 0.00 37 1018.4
20260506205523 61 19 0.9 10.4 0.00 0.00 0.00 38 1018.5
20260506205023 60 18 2.6 10.4 0.00 0.00 0.00 38 1018.6
20260506204538 59 69 3.5 10.4 0.00 0.00 0.00 36 1018.6
20260506204023 60 348 1.7 11.3 0.00 0.00 0.00 39 1018.7
20260506203524 59 0 2.6 11.3 0.00 0.00 0.00 36 1018.8
20260506203036 59 34 2.6 8.7 0.00 0.00 0.00 36 1019.0
20260506202524 59 298 3.5 13.0 0.00 0.00 0.00 36 1018.9
20260506202024 59 355 4.3 13.0 0.00 0.00 0.00 37 1019.1
20260506201542 59 344 3.5 7.8 0.00 0.00 0.00 35 1019.1
20260506201024 59 0 1.7 7.8 0.00 0.00 0.00 38 1019.1
20260506200523 59 33 2.6 7.8 0.00 0.00 0.00 36 1019.1
20260506200037 58 313 0.9 7.8 0.00 0.00 0.00 37 1019.1
20260506195524 58 24 2.6 9.6 0.00 0.00 0.00 35 1019.2
20260506195023 58 343 3.5 9.6 0.00 0.00 0.00 37 1019.2
20260506194535 59 5 3.5 9.6 0.00 0.00 0.00 36 1019.2
20260506194027 59 314 1.7 7.0 0.00 0.00 0.00 37 1019.2
20260506193523 58 56 1.7 11.3 0.00 0.00 0.00 36 1019.2
20260506193035 58 26 4.3 11.3 0.00 0.00 0.00 37 1019.3
20260506192524 58 348 1.7 9.6 0.00 0.00 0.00 35 1019.2
20260506192028 58 5 1.7 9.6 0.00 0.00 0.00 38 1019.2
20260506191535 58 352 1.7 7.0 0.00 0.00 0.00 36 1019.3
20260506191025 58 0 0.9 7.8 0.00 0.00 0.00 35 1019.3
20260506190522 57 0 1.7 8.7 0.00 0.00 0.00 37 1019.3
20260506190036 57 303 1.7 8.7 0.00 0.00 0.00 37 1019.4
20260506185524 57 344 3.5 10.4 0.00 0.01 0.00 35 1019.3
20260506185024 57 36 3.5 10.4 0.00 0.01 0.00 35 1019.3
20260506184542 58 37 3.5 10.4 0.00 0.01 0.00 37 1019.4
20260506184025 57 59 1.7 8.7 0.00 0.01 0.00 35 1019.4
20260506183524 57 340 2.6 11.3 0.00 0.01 0.00 38 1019.5
20260506183039 56 49 3.5 11.3 0.00 0.01 0.00 37 1019.6
20260506182522 57 43 4.3 10.4 0.00 0.01 0.00 36 1019.6
20260506182024 56 284 0.9 7.0 0.00 0.01 0.00 37 1019.7
20260506181538 56 0 2.6 7.0 0.00 0.01 0.00 36 1019.7
20260506181024 57 322 1.7 7.8 0.00 0.01 0.00 37 1019.8
20260506180524 57 336 0.9 7.8 0.00 0.01 0.00 42 1019.8
20260506180040 56 0 0.9 8.7 0.00 0.01 0.00 37 1019.8
20260506175523 56 300 1.7 8.7 0.00 0.06 0.00 44 1019.9
20260506175023 56 344 2.6 7.8 0.00 0.06 0.00 39 1020.0
20260506174537 56 265 0.9 3.5 0.00 0.06 0.00 40 1019.9
20260506174023 55 0 0.9 9.6 0.00 0.06 0.00 40 1019.9
20260506173520 55 0 3.5 9.6 0.00 0.06 0.00 40 1019.9
20260506173041 55 306 1.7 7.8 0.00 0.06 0.00 42 1020.0
20260506172523 55 273 0.9 7.8 0.00 0.06 0.00 39 1020.0
20260506172025 55 287 1.7 7.8 0.00 0.06 0.00 39 1020.0
20260506171550 55 0 0.9 10.4 0.00 0.06 0.00 39 1020.1
20260506171023 55 12 1.7 10.4 0.00 0.06 0.00 40 1020.1
20260506170526 55 12 2.6 8.7 0.00 0.06 0.00 39 1020.1
20260506170043 55 310 3.5 8.7 0.00 0.06 0.00 39 1020.1
20260506165524 55 16 2.6 11.3 0.00 0.08 0.00 39 1020.2
20260506165024 55 360 4.3 11.3 0.00 0.08 0.00 39 1020.2
20260506164535 55 34 1.7 12.2 0.00 0.08 0.00 39 1020.1
20260506164023 56 316 2.6 12.2 0.00 0.08 0.00 40 1020.1
20260506163523 56 40 4.3 12.2 0.00 0.08 0.00 38 1020.0
20260506163036 55 319 1.7 7.8 0.00 0.08 0.00 44 1019.9
20260506162525 55 0 2.6 8.7 0.00 0.08 0.00 43 1020.0
20260506162023 55 48 3.5 8.7 0.00 0.08 0.00 40 1020.0
20260506161537 55 0 1.7 8.7 0.00 0.08 0.00 41 1020.0
20260506161023 54 330 2.6 8.7 0.00 0.08 0.00 40 1019.8
20260506160521 55 49 3.5 9.6 0.00 0.08 0.00 43 1020.0
20260506160045 55 24 2.6 9.6 0.00 0.08 0.00 40 1019.8
20260506155524 55 48 3.5 9.6 0.00 0.10 0.00 41 1019.8
20260506155022 55 59 2.6 9.6 0.00 0.10 0.00 41 1019.6
20260506154539 55 307 2.6 9.6 0.00 0.10 0.00 48 1019.5
20260506154027 54 36 2.6 7.8 0.00 0.10 0.00 47 1019.5
20260506153524 54 5 0.0 6.1 0.00 0.10 0.00 50 1019.4
20260506153035 54 25 1.7 7.8 0.00 0.10 0.00 50 1019.5
20260506152523 54 289 0.9 7.8 0.00 0.10 0.00 53 1019.4
20260506152024 53 25 1.7 7.8 0.00 0.10 0.00 54 1019.4
20260506151540 53 0 1.7 7.8 0.00 0.10 0.00 54 1019.5
20260506151021 53 26 0.9 7.8 0.00 0.10 0.00 52 1019.4
20260506150522 53 314 0.0 6.1 0.00 0.10 0.00 54 1019.4
20260506150035 53 321 0.9 7.8 0.00 0.10 0.00 54 1019.4
20260506145523 52 85 2.6 7.8 0.00 0.14 0.00 52 1019.3
20260506145022 52 327 0.0 7.0 0.00 0.14 0.00 53 1019.4
20260506144552 52 355 2.6 7.0 0.00 0.14 0.00 54 1019.4
20260506144023 52 0 0.9 8.7 0.00 0.14 0.00 57 1019.5
20260506143521 52 342 0.9 8.7 0.00 0.14 0.00 60 1019.7
20260506143036 51 293 0.9 7.0 0.00 0.14 0.00 58 1019.6
20260506142525 51 0 0.0 7.0 0.00 0.14 0.00 58 1019.6
20260506142024 50 0 1.7 6.1 0.00 0.14 0.00 60 1019.7
20260506141537 50 0 0.0 7.8 0.00 0.14 0.00 65 1019.6
20260506141024 50 275 0.9 7.8 0.00 0.14 0.00 67 1019.6
20260506140521 50 0 0.9 6.1 0.00 0.14 0.00 68 1019.4
20260506140037 49 276 0.9 7.8 0.00 0.14 0.00 67 1019.4
20260506135526 49 321 1.7 7.8 0.00 0.15 0.00 68 1019.3
20260506135024 49 0 1.7 7.8 0.00 0.15 0.00 68 1019.2
20260506134535 49 304 0.0 5.2 0.00 0.15 0.00 71 1019.0
20260506134025 49 0 0.9 6.1 0.00 0.15 0.00 69 1019.2
20260506133523 49 302 0.9 6.1 0.00 0.15 0.00 69 1018.9
20260506133036 49 283 1.7 6.1 0.00 0.15 0.00 70 1018.9
20260506132528 49 0 0.0 3.5 0.00 0.15 0.00 71 1018.9
20260506132023 49 0 0.0 3.5 0.00 0.15 0.00 72 1018.7
20260506131543 48 0 0.0 2.6 0.00 0.15 0.00 72 1018.7
20260506131027 48 0 0.0 2.6 0.00 0.15 0.00 72 1018.8
20260506130524 48 0 0.0 0.0 0.00 0.15 0.00 72 1018.5
20260506130037 48 0 0.0 0.0 0.00 0.15 0.00 71 1018.5
20260506125523 48 0 0.0 0.0 0.00 0.22 0.00 72 1018.5
20260506125023 47 0 0.0 0.0 0.00 0.22 0.00 73 1018.2
20260506124537 47 0 0.0 0.0 0.00 0.22 0.00 75 1018.2
20260506124026 46 0 0.0 0.0 0.00 0.22 0.00 76 1018.1
20260506123523 46 0 0.0 0.0 0.00 0.22 0.00 77 1018.1
20260506123036 46 0 0.0 0.0 0.00 0.22 0.00 78 1018.0
20260506122523 45 0 0.0 0.0 0.00 0.22 0.00 80 1018.0
20260506122026 45 0 0.0 0.0 0.00 0.22 0.00 81 1017.7
20260506121539 45 0 0.0 0.0 0.00 0.22 0.00 81 1017.5
20260506121024 44 0 0.0 0.0 0.00 0.22 0.00 81 1017.4
20260506120527 44 0 0.0 0.0 0.00 0.22 0.00 80 1017.2
20260506120035 44 0 0.0 0.0 0.00 0.22 0.00 80 1017.2
20260506115523 45 0 0.0 0.0 0.00 0.23 0.00 79 1017.2
20260506115023 45 0 0.0 0.0 0.00 0.23 0.00 78 1017.0
20260506114541 45 0 0.0 0.0 0.00 0.23 0.00 77 1016.9
20260506114023 45 0 0.0 0.0 0.00 0.23 0.00 75 1016.6
20260506113525 45 0 0.0 0.0 0.00 0.23 0.00 74 1016.6
20260506113035 46 0 0.0 0.0 0.00 0.23 0.00 72 1016.5
20260506112523 46 0 0.0 0.0 0.00 0.23 0.00 71 1016.5
20260506112026 46 0 0.0 0.0 0.00 0.23 0.00 70 1016.5
20260506111536 47 0 0.0 0.0 0.00 0.23 0.00 70 1016.6
20260506111026 47 0 0.0 0.0 0.00 0.23 0.00 70 1016.7
20260506110526 47 0 0.0 4.3 0.00 0.23 0.00 71 1016.9
20260506110039 47 0 0.0 7.0 0.00 0.23 0.00 72 1017.0
20260506105527 46 0 0.0 7.0 0.00 0.27 0.00 76 1017.2
20260506105025 46 0 0.0 1.7 0.00 0.27 0.00 81 1017.3
20260506104540 46 0 0.0 0.0 0.00 0.27 0.00 82 1017.3
20260506104027 46 0 0.0 0.0 0.00 0.27 0.00 82 1017.3
20260506103525 46 0 0.0 6.1 0.00 0.27 0.00 83 1017.3
20260506103039 46 0 0.0 6.1 0.00 0.27 0.00 84 1017.5
20260506102525 46 260 0.0 7.8 0.00 0.27 0.00 85 1017.5
20260506102026 46 0 0.0 7.8 0.00 0.27 0.00 86 1017.5
20260506101537 45 289 0.0 5.2 0.00 0.27 0.00 85 1017.7
20260506101025 45 305 0.0 6.1 0.00 0.27 0.00 86 1017.8
20260506100526 45 292 0.9 6.1 0.00 0.27 0.00 86 1017.8
20260506100039 45 0 0.0 7.0 0.00 0.27 0.00 86 1017.7
20260506095525 45 278 0.9 7.0 0.00 0.27 0.00 86 1017.7
20260506095024 45 0 0.9 6.1 0.00 0.27 0.00 86 1017.5
20260506094540 45 0 0.0 1.7 0.00 0.27 0.00 87 1017.2
20260506094025 45 0 0.0 1.7 0.00 0.27 0.00 87 1017.0
20260506093525 45 0 0.0 0.9 0.00 0.27 0.00 87 1016.6
20260506093035 45 0 0.0 0.0 0.00 0.27 0.00 87 1016.4
20260506092526 45 0 0.0 0.0 0.00 0.27 0.00 87 1016.2
20260506092026 45 0 0.0 0.0 0.00 0.27 0.00 87 1016.2
20260506091537 45 0 0.0 0.0 0.00 0.27 0.00 87 1016.0
20260506091025 45 0 0.0 0.0 0.00 0.27 0.00 87 1016.0
20260506090527 45 0 0.0 0.0 0.00 0.27 0.00 86 1015.9
20260506090036 45 0 0.0 0.0 0.00 0.27 0.00 86 1016.2
20260506085526 45 0 0.0 0.0 0.00 0.27 0.00 86 1016.0
20260506085025 45 0 0.0 0.0 0.00 0.27 0.00 86 1015.8
20260506084540 45 0 0.0 0.0 0.00 0.27 0.00 86 1015.8
20260506084023 45 0 0.0 0.0 0.00 0.27 0.00 86 1016.0
20260506083525 45 0 0.0 0.0 0.00 0.27 0.00 86 1016.0
20260506083039 45 0 0.0 0.0 0.00 0.27 0.00 86 1016.1
20260506082523 45 0 0.0 0.0 0.00 0.27 0.00 86 1016.1
20260506082023 45 0 0.0 0.0 0.00 0.27 0.00 85 1016.1
20260506081536 45 0 0.0 0.0 0.00 0.27 0.00 85 1016.1
20260506081023 45 0 0.0 0.0 0.00 0.27 0.00 85 1016.2
20260506080522 45 0 0.0 0.0 0.00 0.27 0.00 85 1016.1
20260506073524 45 0 0.0 0.0 0.00 0.34 0.00 82 1015.4
20260506073037 46 0 0.0 0.0 0.00 0.34 0.00 82 1015.3
20260506072523 46 0 0.0 0.0 0.00 0.34 0.00 82 1015.2
20260506072023 46 0 0.0 0.0 0.00 0.34 0.00 82 1015.4
20260506071535 46 0 0.0 0.0 0.00 0.34 0.00 81 1015.3
20260506071024 46 0 0.0 2.6 0.00 0.34 0.00 81 1015.3
20260506070523 46 0 0.0 2.6 0.00 0.34 0.00 81 1015.4
20260506062024 46 0 0.0 4.3 0.00 0.43 0.00 80 1015.7
20260506061535 46 0 0.0 4.3 0.00 0.43 0.00 79 1015.9
20260506061022 46 55 0.9 4.3 0.00 0.43 0.00 79 1015.9
20260506060524 46 27 0.9 5.2 0.00 0.43 0.00 78 1016.0
20260506051024 47 5 1.7 9.6 0.00 0.47 0.00 76 1016.2
20260506050526 48 0 1.7 9.6 0.00 0.47 0.00 75 1016.3
20260506045024 48 0 0.0 4.3 0.00 0.79 0.47 73 1016.1
20260506044544 48 0 0.0 7.0 0.00 0.79 0.47 72 1016.1
20260506044025 48 5 0.0 9.6 0.00 0.79 0.47 70 1016.1
20260506043525 49 0 1.7 9.6 0.00 0.79 0.47 69 1016.1
20260506043035 49 355 2.6 9.6 0.00 0.79 0.47 67 1016.1
20260506042528 50 0 3.5 10.4 0.00 0.79 0.47 67 1016.2
20260506042022 50 0 2.6 10.4 0.00 0.79 0.47 64 1016.1
20260506041536 50 337 4.3 11.3 0.00 0.79 0.47 63 1016.0
20260506041024 50 338 2.6 11.3 0.00 0.79 0.47 63 1015.8
20260506040525 50 360 0.9 8.7 0.00 0.79 0.47 63 1015.8
20260506040036 50 19 1.7 12.2 0.00 0.79 0.47 63 1015.8
20260506035528 51 15 2.6 12.2 0.00 0.79 0.47 63 1016.0
20260506035025 51 348 2.6 13.0 0.00 0.79 0.47 62 1015.8
20260506034538 51 360 5.2 13.0 0.00 0.79 0.47 63 1015.8
20260506034026 51 272 0.0 11.3 0.00 0.79 0.47 66 1015.5
20260506033525 50 267 1.7 11.3 0.00 0.79 0.47 68 1015.2
20260506033039 50 0 0.9 4.3 0.00 0.79 0.47 69 1014.9
20260506032525 50 0 0.0 2.6 0.00 0.79 0.47 70 1014.7
20260506032026 50 0 0.0 0.0 0.00 0.79 0.47 70 1014.6
20260506031538 50 0 0.0 0.0 0.00 0.79 0.47 70 1014.7
20260506031025 51 0 0.0 2.6 0.00 0.79 0.47 70 1014.5
20260506030529 51 0 0.0 2.6 0.00 0.79 0.47 69 1014.3
20260506030055 51 0 0.0 5.2 0.00 0.79 0.47 68 1014.2
20260506025525 51 0 0.0 6.1 0.00 0.79 0.47 67 1014.2
20260506025029 51 0 0.0 6.1 0.00 0.79 0.47 67 1014.0
20260506024547 51 336 0.0 7.8 0.00 0.79 0.47 67 1014.1
20260506024023 51 0 0.9 7.8 0.00 0.79 0.47 67 1013.8
20260506023525 51 11 0.0 7.8 0.00 0.79 0.47 67 1013.8
20260506023039 51 0 2.6 7.8 0.00 0.79 0.47 67 1013.7
20260506022525 51 5 0.9 7.0 0.00 0.79 0.47 68 1013.4
20260506022021 51 0 1.7 7.0 0.00 0.79 0.47 68 1013.5
20260506021537 51 0 0.9 7.0 0.00 0.79 0.47 68 1013.4
20260506021022 51 0 0.0 1.7 0.00 0.79 0.47 68 1013.5
20260506020527 51 0 0.0 1.7 0.00 0.79 0.47 67 1013.3
20260506020035 51 0 0.0 4.3 0.00 0.79 0.47 67 1013.2
20260506015524 52 0 0.0 4.3 0.00 0.79 0.47 67 1013.1
20260506015024 52 355 0.0 0.0 0.00 0.79 0.47 68 1012.8
20260506014543 52 0 0.0 0.0 0.00 0.79 0.47 67 1012.8
20260506014023 52 0 0.0 0.0 0.00 0.79 0.47 65 1012.7
20260506013523 52 0 0.0 1.7 0.00 0.79 0.47 64 1012.6
20260506013036 52 0 0.0 1.7 0.00 0.79 0.47 63 1012.7